User: anonymous   Login
Location: Wawayanda State Park
(41.1833°N, 74.4333°W)
Time: 12:28:38
(UTC-04:00)
Language:

Landsat 7 - Orbit

View from above orbital plane
View from above orbital plane
View from above satellite
View from above satellite

Ground track
Ground track

The orbit data is extracted from the following two-line orbital elements,

1 25682U 99020A   16242.07436255  .00000085  00000-0  28885-4 0  9998
2 25682  98.2070 311.4676 0000989 100.5415 259.5893 14.57108245924059
Epoch (UTC): 29 August 2016 01:47:04
Eccentricity: 0.0000989
inclination: 98.2070°
perigee height: 702 km
apogee height: 703 km
right ascension of ascending node: 311.4676°
argument of perigee: 100.5415°
revolutions per day: 14.57108245
mean anomaly at epoch: 259.5893°
orbit number at epoch: 92405

The dashed part of the orbit path shows where the satellite is in the earth's shadow,  

DLR